Time,TemperatureF,DewpointF,PressureIn,WindDirection,WindDirectionDegrees,WindSpeedMPH,WindSpeedGustMPH,Humidity,HourlyPrecipIn,Conditions,Clouds,dailyrainin,SolarRadiationWatts/m^2,SoftwareType,DateUTC
2013-12-12 00:02:00,20.0,15.0,-100.00,SSW,212,2.0,5.0,81,0.00,,,0.00,0.000000,,2013-12-12 07:02:00,
2013-12-12 00:11:00,20.0,15.0,-100.00,SSW,212,2.0,5.0,81,0.00,,,0.00,0.000000,,2013-12-12 07:11:00,
2013-12-12 00:22:00,20.0,15.0,-100.00,SSW,212,2.0,5.0,81,0.00,,,0.00,0.000000,,2013-12-12 07:22:00,
2013-12-12 00:52:00,24.0,17.0,-100.00,SW,216,2.0,7.0,74,0.00,,,0.00,0.000000,,2013-12-12 07:52:00,
2013-12-12 01:02:00,24.0,17.0,-100.00,SW,216,2.0,7.0,74,0.00,,,0.00,0.000000,,2013-12-12 08:02:00,
2013-12-12 01:11:00,24.0,17.0,-100.00,SW,216,2.0,7.0,74,0.00,,,0.00,0.000000,,2013-12-12 08:11:00,
2013-12-12 01:22:00,24.0,17.0,-100.00,SW,216,2.0,7.0,74,0.00,,,0.00,0.000000,,2013-12-12 08:22:00,
2013-12-12 01:53:00,22.0,17.0,-100.00,North,-999,0.0,5.0,80,0.00,,,0.00,0.000000,,2013-12-12 08:53:00,
2013-12-12 02:02:00,22.0,17.0,-100.00,North,-999,0.0,5.0,80,0.00,,,0.00,0.000000,,2013-12-12 09:02:00,
2013-12-12 02:12:00,22.0,17.0,-100.00,North,-999,0.0,5.0,80,0.00,,,0.00,0.000000,,2013-12-12 09:12:00,
2013-12-12 02:22:00,22.0,17.0,-100.00,North,-999,0.0,5.0,80,0.00,,,0.00,0.000000,,2013-12-12 09:22:00,
2013-12-12 02:54:00,23.0,17.0,-100.00,North,-999,0.0,7.0,79,0.00,,,0.00,0.000000,,2013-12-12 09:54:00,
2013-12-12 03:03:00,23.0,17.0,-100.00,North,-999,0.0,7.0,79,0.00,,,0.00,0.000000,,2013-12-12 10:03:00,
2013-12-12 03:12:00,23.0,17.0,-100.00,North,-999,0.0,7.0,79,0.00,,,0.00,0.000000,,2013-12-12 10:12:00,
2013-12-12 03:23:00,23.0,17.0,-100.00,North,-999,0.0,7.0,79,0.00,,,0.00,0.000000,,2013-12-12 10:23:00,
2013-12-12 03:53:00,24.0,18.0,-100.00,South,174,1.0,3.0,78,0.00,,,0.00,0.000000,,2013-12-12 10:53:00,
2013-12-12 04:02:00,24.0,18.0,-100.00,South,174,1.0,3.0,78,0.00,,,0.00,0.000000,,2013-12-12 11:02:00,
2013-12-12 04:12:00,24.0,18.0,-100.00,South,174,1.0,3.0,78,0.00,,,0.00,0.000000,,2013-12-12 11:12:00,
2013-12-12 04:23:00,24.0,18.0,-100.00,South,174,1.0,3.0,78,0.00,,,0.00,0.000000,,2013-12-12 11:23:00,
2013-12-12 04:53:00,25.0,19.0,-100.00,SW,223,3.0,7.0,78,0.00,,,0.00,0.000000,,2013-12-12 11:53:00,
2013-12-12 05:02:00,25.0,19.0,-100.00,SW,223,3.0,7.0,78,0.00,,,0.00,0.000000,,2013-12-12 12:02:00,
2013-12-12 05:12:00,25.0,19.0,-100.00,SW,223,3.0,7.0,78,0.00,,,0.00,0.000000,,2013-12-12 12:12:00,
2013-12-12 05:22:00,25.0,19.0,-100.00,SW,223,3.0,7.0,78,0.00,,,0.00,0.000000,,2013-12-12 12:22:00,
2013-12-12 05:52:00,27.0,20.0,-100.00,ENE,74,1.0,11.0,73,0.00,,,0.00,0.000000,,2013-12-12 12:52:00,
2013-12-12 06:01:00,27.0,20.0,-100.00,ENE,74,1.0,11.0,73,0.00,,,0.00,0.000000,,2013-12-12 13:01:00,
2013-12-12 06:12:00,27.0,20.0,-100.00,ENE,74,1.0,11.0,73,0.00,,,0.00,0.000000,,2013-12-12 13:12:00,
2013-12-12 06:21:00,27.0,20.0,-100.00,ENE,74,1.0,11.0,73,0.00,,,0.00,0.000000,,2013-12-12 13:21:00,
2013-12-12 06:52:00,25.0,18.0,-100.00,SW,233,3.0,9.0,74,0.00,,,0.00,0.000000,,2013-12-12 13:52:00,
2013-12-12 07:02:00,25.0,18.0,-100.00,SW,233,3.0,9.0,74,0.00,,,0.00,0.000000,,2013-12-12 14:02:00,
2013-12-12 07:11:00,25.0,18.0,-100.00,SW,233,3.0,9.0,74,0.00,,,0.00,0.000000,,2013-12-12 14:11:00,
2013-12-12 07:22:00,25.0,18.0,-100.00,SW,233,3.0,9.0,74,0.00,,,0.00,0.000000,,2013-12-12 14:22:00,
2013-12-12 07:52:00,25.0,18.0,-100.00,WSW,238,6.0,11.0,74,0.00,,,0.00,0.000000,,2013-12-12 14:52:00,
2013-12-12 08:02:00,25.0,18.0,-100.00,WSW,238,6.0,11.0,74,0.00,,,0.00,0.000000,,2013-12-12 15:02:00,
2013-12-12 08:11:00,25.0,18.0,-100.00,WSW,238,6.0,11.0,74,0.00,,,0.00,0.000000,,2013-12-12 15:11:00,
2013-12-12 08:22:00,25.0,18.0,-100.00,WSW,238,6.0,11.0,74,0.00,,,0.00,0.000000,,2013-12-12 15:22:00,
2013-12-12 08:54:00,24.0,17.0,-100.00,North,-999,0.0,9.0,75,0.00,,,0.00,23.000000,,2013-12-12 15:54:00,
2013-12-12 09:03:00,24.0,17.0,-100.00,North,-999,0.0,9.0,75,0.00,,,0.00,23.000000,,2013-12-12 16:03:00,
2013-12-12 09:12:00,24.0,17.0,-100.00,North,-999,0.0,9.0,75,0.00,,,0.00,23.000000,,2013-12-12 16:12:00,
2013-12-12 09:23:00,24.0,17.0,-100.00,North,-999,0.0,9.0,75,0.00,,,0.00,23.000000,,2013-12-12 16:23:00,
2013-12-12 10:12:00,31.0,18.0,-100.00,SE,141,1.0,10.0,59,0.00,,,0.00,139.000000,,2013-12-12 17:12:00,
2013-12-12 10:23:00,31.0,18.0,-100.00,SE,141,1.0,10.0,59,0.00,,,0.00,139.000000,,2013-12-12 17:23:00,
2013-12-12 11:22:00,34.0,19.0,-100.00,SSW,200,2.0,8.0,53,0.00,,,0.00,246.000000,,2013-12-12 18:22:00,
2013-12-12 11:52:00,33.0,20.0,-100.00,WSW,241,5.0,12.0,59,0.03,,,0.03,277.000000,,2013-12-12 18:52:00,
2013-12-12 12:01:00,33.0,20.0,-100.00,WSW,241,5.0,12.0,59,0.03,,,0.03,277.000000,,2013-12-12 19:01:00,
2013-12-12 12:11:00,33.0,20.0,-100.00,WSW,241,5.0,12.0,59,0.03,,,0.03,277.000000,,2013-12-12 19:11:00,
2013-12-12 12:21:00,33.0,20.0,-100.00,WSW,241,5.0,12.0,59,0.03,,,0.03,277.000000,,2013-12-12 19:21:00,
2013-12-12 12:52:00,33.0,20.0,-100.00,WSW,245,7.0,14.0,58,0.02,,,0.05,271.000000,,2013-12-12 19:52:00,
2013-12-12 13:02:00,33.0,20.0,-100.00,WSW,245,7.0,14.0,58,0.02,,,0.05,271.000000,,2013-12-12 20:02:00,
2013-12-12 13:12:00,33.0,20.0,-100.00,WSW,245,7.0,14.0,58,0.02,,,0.05,271.000000,,2013-12-12 20:12:00,
2013-12-12 13:21:00,33.0,20.0,-100.00,WSW,245,7.0,14.0,58,0.02,,,0.05,271.000000,,2013-12-12 20:21:00,
2013-12-12 13:52:00,33.0,21.0,-100.00,WSW,246,4.0,14.0,60,0.03,,,0.08,231.000000,,2013-12-12 20:52:00,
2013-12-12 14:02:00,33.0,21.0,-100.00,WSW,246,4.0,14.0,60,0.03,,,0.08,231.000000,,2013-12-12 21:02:00,
2013-12-12 14:11:00,33.0,21.0,-100.00,WSW,246,4.0,14.0,60,0.03,,,0.08,231.000000,,2013-12-12 21:11:00,
2013-12-12 14:21:00,33.0,21.0,-100.00,WSW,246,4.0,14.0,60,0.03,,,0.08,231.000000,,2013-12-12 21:21:00,
2013-12-12 14:53:00,36.0,22.0,-100.00,SSE,162,1.0,8.0,56,0.02,,,0.10,166.000000,,2013-12-12 21:53:00,
2013-12-12 15:03:00,36.0,22.0,-100.00,SSE,162,1.0,8.0,56,0.02,,,0.10,166.000000,,2013-12-12 22:03:00,
2013-12-12 15:12:00,36.0,22.0,-100.00,SSE,162,1.0,8.0,56,0.02,,,0.10,166.000000,,2013-12-12 22:12:00,
2013-12-12 15:22:00,36.0,22.0,-100.00,SSE,162,1.0,8.0,56,0.02,,,0.10,166.000000,,2013-12-12 22:22:00,
2013-12-12 15:53:00,33.0,23.0,-100.00,South,182,2.0,5.0,66,-99.99,,,0.12,94.000000,,2013-12-12 22:53:00,
2013-12-12 16:02:00,33.0,23.0,-100.00,South,182,2.0,5.0,66,-99.99,,,0.12,94.000000,,2013-12-12 23:02:00,
2013-12-12 16:12:00,33.0,23.0,-100.00,South,182,2.0,5.0,66,-99.99,,,0.12,94.000000,,2013-12-12 23:12:00,
2013-12-12 16:22:00,33.0,23.0,-100.00,South,182,2.0,5.0,66,-99.99,,,0.12,94.000000,,2013-12-12 23:22:00,
2013-12-12 16:53:00,30.0,22.0,-100.00,South,187,3.0,6.0,72,0.00,,,0.12,24.000000,,2013-12-12 23:53:00,
2013-12-12 17:02:00,30.0,22.0,-100.00,South,187,3.0,6.0,72,0.00,,,0.12,24.000000,,2013-12-13 00:02:00,
2013-12-12 17:11:00,30.0,22.0,-100.00,South,187,3.0,6.0,72,0.00,,,0.12,24.000000,,2013-12-13 00:11:00,
2013-12-12 17:22:00,30.0,22.0,-100.00,South,187,3.0,6.0,72,0.00,,,0.12,24.000000,,2013-12-13 00:22:00,
2013-12-12 17:53:00,28.0,21.0,-100.00,SSW,206,3.0,8.0,75,0.00,,,0.12,0.000000,,2013-12-13 00:53:00,
2013-12-12 18:02:00,28.0,21.0,-100.00,SSW,206,3.0,8.0,75,0.00,,,0.12,0.000000,,2013-12-13 01:02:00,
2013-12-12 18:12:00,28.0,21.0,-100.00,SSW,206,3.0,8.0,75,0.00,,,0.12,0.000000,,2013-12-13 01:12:00,
2013-12-12 18:21:00,28.0,21.0,-100.00,SSW,206,3.0,8.0,75,0.00,,,0.12,0.000000,,2013-12-13 01:21:00,
2013-12-12 18:53:00,25.0,19.0,-100.00,South,186,2.0,6.0,78,0.00,,,0.12,0.000000,,2013-12-13 01:53:00,
2013-12-12 19:01:00,25.0,19.0,-100.00,South,186,2.0,6.0,78,0.00,,,0.12,0.000000,,2013-12-13 02:01:00,
2013-12-12 19:11:00,25.0,19.0,-100.00,South,186,2.0,6.0,78,0.00,,,0.12,0.000000,,2013-12-13 02:11:00,
2013-12-12 19:22:00,25.0,19.0,-100.00,South,186,2.0,6.0,78,0.00,,,0.12,0.000000,,2013-12-13 02:22:00,
2013-12-12 19:52:00,27.0,20.0,-100.00,SW,223,5.0,8.0,74,0.00,,,0.12,0.000000,,2013-12-13 02:52:00,
2013-12-12 20:02:00,27.0,20.0,-100.00,SW,223,5.0,8.0,74,0.00,,,0.12,0.000000,,2013-12-13 03:02:00,
2013-12-12 20:11:00,27.0,20.0,-100.00,SW,223,5.0,8.0,74,0.00,,,0.12,0.000000,,2013-12-13 03:11:00,
2013-12-12 20:22:00,27.0,20.0,-100.00,SW,223,5.0,8.0,74,0.00,,,0.12,0.000000,,2013-12-13 03:22:00,
2013-12-12 20:53:00,27.0,20.0,-100.00,SW,215,4.0,6.0,74,0.00,,,0.12,0.000000,,2013-12-13 03:53:00,
2013-12-12 21:03:00,27.0,20.0,-100.00,SW,215,4.0,6.0,74,0.00,,,0.12,0.000000,,2013-12-13 04:03:00,
2013-12-12 21:13:00,27.0,20.0,-100.00,SW,215,4.0,6.0,74,0.00,,,0.12,0.000000,,2013-12-13 04:13:00,
2013-12-12 21:22:00,27.0,20.0,-100.00,SW,215,4.0,6.0,74,0.00,,,0.12,0.000000,,2013-12-13 04:22:00,
2013-12-12 21:53:00,25.0,19.0,-100.00,SW,225,3.0,7.0,76,0.00,,,0.12,0.000000,,2013-12-13 04:53:00,
2013-12-12 22:02:00,25.0,19.0,-100.00,SW,225,3.0,7.0,76,0.00,,,0.12,0.000000,,2013-12-13 05:02:00,
2013-12-12 22:12:00,25.0,19.0,-100.00,SW,225,3.0,7.0,76,0.00,,,0.12,0.000000,,2013-12-13 05:12:00,
2013-12-12 22:22:00,25.0,19.0,-100.00,SW,225,3.0,7.0,76,0.00,,,0.12,0.000000,,2013-12-13 05:22:00,
2013-12-12 22:53:00,24.0,18.0,-100.00,SW,232,1.0,6.0,79,0.00,,,0.12,0.000000,,2013-12-13 05:53:00,
2013-12-12 23:02:00,24.0,18.0,-100.00,SW,232,1.0,6.0,79,0.00,,,0.12,0.000000,,2013-12-13 06:02:00,
2013-12-12 23:12:00,24.0,18.0,-100.00,SW,232,1.0,6.0,79,0.00,,,0.12,0.000000,,2013-12-13 06:12:00,
2013-12-12 23:21:00,24.0,18.0,-100.00,SW,232,1.0,6.0,79,0.00,,,0.12,0.000000,,2013-12-13 06:21:00,
2013-12-12 23:52:00,24.0,19.0,-100.00,SSW,208,4.0,7.0,80,0.00,,,0.12,0.000000,,2013-12-13 06:52:00,